Location: Gu�tanj
(46.5431°N, 14.9692°E)
Time: 16:00:22
(UTC+00:00)

SJ-6B - Pass Details

Date: 03 March 2021
Orbit: 509 x 581 km, 97.6° (Epoch: 17 April)

Event Time Altitude Azimuth Distance (km) Brightness Sun altitude
Exits shadow 19:22:40 31° 228° (SW) 1,016 4.3 -26.8°
Maximum altitude 19:23:44 37° 262° (W) 899 4.2 -27.0°
Drops below altitude 10° 19:27:33 10° 331° (NNW) 1,878 6.1 -27.6°
Sets 19:29:49 0° 340° (NNW) 2,770 7.0 -28.0°
